START_TIME,STEP,MOV.,M29,t_acc.,H22,t_acc.,H26,t_acc.,H30,t_acc.
1981-08-27 06:00:32.720 ,4,0,0.,24.0,0.,24.0,0.,24.0,0.,24.0
1981-08-27 06:00:56.720 ,5,1,0.,24.0,0.,24.0,0.,24.0,0.,24.0
1981-08-27 06:01:20.720 ,5,0,0.,24.0,0.,24.0,0.,24.0,0.,24.0
1981-08-27 06:01:44.720 ,6,1,0.,24.0,0.,24.0,0.,24.0,0.,24.0
1981-08-27 06:02:08.720 ,6,0,0.,24.0,0.,24.0,0.,24.0,0.,24.0
1981-08-27 06:02:32.720 ,7,1,0.,24.0,0.,24.0,0.,24.0,0.,24.0
1981-08-27 06:02:56.720 ,7,0,0.,24.0,0.,24.0,0.,24.0,0.,24.0
1981-08-27 06:03:20.720 ,7,1,0.,24.0,0.,24.0,0.,24.0,0.,24.0
1981-08-27 06:03:44.720 ,7,0,0.,24.0,0.,24.0,0.,24.0,0.,24.0
1981-08-27 06:04:08.720 ,6,1,0.,24.0,0.,24.0,0.,24.0,0.,24.0
1981-08-27 06:04:32.720 ,6,0,0.,24.0,0.,24.0,0.,24.0,0.,24.0
1981-08-27 06:04:56.720 ,5,1,0.,24.0,0.,24.0,0.,24.0,0.,24.0
1981-08-27 06:05:20.720 ,5,0,0.,24.0,0.,24.0,0.,24.0,0.,24.0
1981-08-27 06:05:44.720 ,4,1,0.,24.0,0.,24.0,0.,24.0,0.,24.0
1981-08-27 06:06:08.720 ,4,0,0.,24.0,0.,24.0,0.,24.0,0.,24.0
1981-08-27 06:06:32.720 ,3,1,0.,24.0,0.,24.0,0.,24.0,0.,24.0
1981-08-27 06:06:56.720 ,3,0,0.,24.0,0.,24.0,0.,24.0,0.,24.0
1981-08-27 06:07:20.720 ,2,1,0.,24.0,0.,24.0,0.,24.0,0.,24.0
1981-08-27 06:07:44.720 ,2,0,0.,24.0,0.,24.0,0.,24.0,0.,24.0
1981-08-27 06:08:08.720 ,1,1,0.,24.0,0.,24.0,0.,24.0,0.,24.0
1981-08-27 06:08:32.720 ,1,0,0.,24.0,0.,24.0,0.,24.0,0.,24.0
1981-08-27 06:08:56.720 ,0,1,0.,24.0,0.,24.0,0.,24.0,0.,24.0
1981-08-27 06:09:20.720 ,0,0,0.,24.0,0.,24.0,0.,24.0,0.,24.0
1981-08-27 06:09:44.720 ,0,1,0.,24.0,0.,24.0,0.,24.0,0.,24.0
1981-08-27 06:10:08.720 ,0,0,0.,24.0,0.,24.0,0.,24.0,0.,24.0
1981-08-27 06:10:32.720 ,1,1,0.,24.0,0.,24.0,0.,24.0,0.,24.0
1981-08-27 06:10:56.720 ,1,0,0.,24.0,0.,24.0,0.,24.0,0.,24.0
1981-08-27 06:11:20.720 ,2,1,0.,24.0,0.,24.0,0.,24.0,0.,24.0
1981-08-27 06:11:44.720 ,2,0,0.,24.0,0.,24.0,0.,24.0,0.,24.0
1981-08-27 06:12:08.720 ,3,1,0.,24.0,0.,24.0,0.,24.0,0.,24.0
1981-08-27 06:12:32.720 ,3,0,0.,24.0,0.,24.0,0.,24.0,0.,24.0
1981-08-27 06:12:56.720 ,4,1,0.,24.0,0.,24.0,0.,24.0,0.,24.0
1981-08-27 06:13:20.720 ,4,0,0.,24.0,0.,24.0,0.,24.0,0.,24.0
1981-08-27 06:13:44.720 ,5,1,0.,24.0,0.,24.0,0.,24.0,0.,24.0
1981-08-27 06:14:08.720 ,5,0,0.,24.0,0.,24.0,0.,24.0,0.,24.0
1981-08-27 06:14:32.720 ,6,1,0.,24.0,0.,24.0,0.,24.0,0.,24.0
1981-08-27 06:14:56.720 ,6,0,0.,24.0,0.,24.0,0.,24.0,0.,24.0
1981-08-27 06:15:20.720 ,7,1,0.,24.0,0.,24.0,0.,24.0,0.,24.0
1981-08-27 06:15:44.720 ,7,0,0.,24.0,0.,24.0,0.,24.0,0.,24.0
1981-08-27 06:16:08.720 ,7,1,0.,24.0,0.,24.0,0.,24.0,0.,24.0
1981-08-27 06:16:32.720 ,7,0,0.,24.0,0.,24.0,0.,24.0,0.,24.0
1981-08-27 06:16:56.720 ,6,1,0.,24.0,0.,24.0,0.,24.0,0.,24.0
1981-08-27 06:17:20.710 ,6,0,0.,24.0,0.,24.0,0.,24.0,0.,24.0
1981-08-27 06:17:44.710 ,5,1,0.,24.0,0.,24.0,0.,24.0,0.,24.0
1981-08-27 06:18:08.710 ,5,0,0.,24.0,0.,24.0,0.,24.0,0.,24.0
1981-08-27 06:18:32.710 ,4,1,0.,24.0,0.,24.0,0.,24.0,0.,24.0
1981-08-27 06:18:56.710 ,4,0,0.,24.0,0.,24.0,0.,24.0,0.,24.0
1981-08-27 06:19:20.710 ,3,1,0.,24.0,0.,24.0,0.,24.0,0.,24.0
1981-08-27 06:19:44.710 ,3,0,0.,24.0,0.,24.0,0.,24.0,0.,24.0
1981-08-27 06:20:08.710 ,2,1,0.,24.0,0.,24.0,0.,24.0,0.,24.0
1981-08-27 06:20:32.710 ,2,0,0.,24.0,0.,24.0,0.,24.0,0.,24.0
1981-08-27 06:20:56.710 ,1,1,0.,24.0,0.,24.0,0.,24.0,0.,24.0
1981-08-27 06:21:20.710 ,1,0,0.,24.0,0.,24.0,0.,24.0,0.,24.0
1981-08-27 06:21:44.710 ,0,1,0.,24.0,0.,24.0,0.,24.0,0.,24.0
1981-08-27 06:22:08.710 ,0,0,0.,24.0,0.,24.0,0.,24.0,0.,24.0
1981-08-27 06:22:32.710 ,0,1,0.,24.0,0.,24.0,0.,24.0,0.,24.0
1981-08-27 06:22:56.710 ,0,0,0.,24.0,0.,24.0,0.,24.0,0.,24.0
1981-08-27 06:23:20.710 ,1,1,0.,24.0,0.,24.0,0.,24.0,0.,24.0
1981-08-27 06:23:44.710 ,1,0,0.,24.0,0.,24.0,0.,24.0,0.,24.0
1981-08-27 06:24:08.710 ,2,1,0.,24.0,0.,24.0,0.,24.0,0.,24.0
1981-08-27 06:24:32.710 ,2,0,0.,24.0,0.,24.0,0.,24.0,0.,24.0
1981-08-27 06:24:56.710 ,3,1,0.,24.0,0.,24.0,0.,24.0,0.,24.0
1981-08-27 06:25:20.710 ,3,0,0.,24.0,0.,24.0,0.,24.0,0.,24.0
1981-08-27 06:25:44.710 ,4,1,0.,24.0,0.,24.0,0.,24.0,0.,24.0
1981-08-27 06:26:08.710 ,4,0,0.,24.0,0.,24.0,0.,24.0,0.,24.0
1981-08-27 06:26:32.710 ,5,1,0.,24.0,0.,24.0,0.,24.0,0.,24.0
1981-08-27 06:26:56.710 ,5,0,0.,24.0,0.,24.0,0.,24.0,0.,24.0
1981-08-27 06:27:20.710 ,6,1,0.,24.0,0.,24.0,0.,24.0,0.,24.0
1981-08-27 06:27:44.710 ,6,0,0.,24.0,0.,24.0,0.,24.0,0.,24.0
1981-08-27 06:28:08.710 ,7,1,0.,24.0,0.,24.0,0.,24.0,0.,24.0
1981-08-27 06:28:32.710 ,7,0,0.,24.0,0.,24.0,0.,24.0,0.,24.0
1981-08-27 06:28:56.710 ,7,1,0.,24.0,0.,24.0,0.,24.0,0.,24.0
1981-08-27 06:29:20.710 ,7,0,0.,24.0,0.,24.0,0.,24.0,0.,24.0
1981-08-27 06:29:44.710 ,6,1,0.,24.0,0.,24.0,0.,24.0,0.,24.0
1981-08-27 06:30:08.710 ,6,0,0.,24.0,0.,24.0,0.,24.0,0.,24.0
1981-08-27 06:30:32.710 ,5,1,0.,24.0,0.,24.0,0.,24.0,0.,24.0
1981-08-27 06:30:32.710 ,5,1,0.,24.0,0.,24.0,0.,24.0,0.,24.0
1981-08-27 06:30:56.710 ,5,0,0.,24.0,0.,24.0,0.,24.0,0.,24.0
1981-08-27 06:31:20.710 ,4,1,0.,24.0,0.,24.0,0.,24.0,0.,24.0
1981-08-27 06:31:44.710 ,4,0,0.,24.0,0.,24.0,0.,24.0,0.,24.0
1981-08-27 06:32:08.710 ,3,1,0.,24.0,0.,24.0,0.,24.0,0.,24.0
1981-08-27 06:32:32.710 ,3,0,0.,24.0,0.,24.0,0.,24.0,0.,24.0
1981-08-27 06:32:56.710 ,2,1,0.,24.0,0.,24.0,0.,24.0,0.,24.0
1981-08-27 06:33:20.710 ,2,0,0.,24.0,0.,24.0,0.,24.0,0.,24.0
1981-08-27 06:33:44.710 ,1,1,0.,24.0,0.,24.0,0.,24.0,0.,24.0
1981-08-27 06:34:08.710 ,1,0,0.,24.0,0.,24.0,0.,24.0,0.,24.0
1981-08-27 06:34:32.710 ,0,1,0.,24.0,0.,24.0,0.,24.0,0.,24.0
1981-08-27 06:34:56.710 ,0,0,0.,24.0,0.,24.0,0.,24.0,0.,24.0
1981-08-27 06:35:20.710 ,0,1,0.,24.0,0.,24.0,0.,24.0,0.,24.0
1981-08-27 06:35:44.710 ,0,0,0.,24.0,0.,24.0,0.,24.0,0.,24.0
1981-08-27 06:36:08.710 ,1,1,0.,24.0,0.,24.0,0.,24.0,0.,24.0
1981-08-27 06:36:32.710 ,1,0,0.,24.0,0.,24.0,0.,24.0,0.,24.0
1981-08-27 06:36:56.710 ,2,1,0.,24.0,0.,24.0,0.,24.0,0.,24.0
1981-08-27 06:37:20.710 ,2,0,0.,24.0,0.,24.0,0.,24.0,0.,24.0
1981-08-27 06:37:44.710 ,3,1,0.,24.0,0.,24.0,0.,24.0,0.,24.0
1981-08-27 06:38:08.710 ,3,0,0.,24.0,0.,24.0,0.,24.0,0.,24.0
1981-08-27 06:38:32.710 ,4,1,0.,24.0,0.,24.0,0.,24.0,0.,24.0
1981-08-27 06:38:56.710 ,4,0,0.,24.0,0.,24.0,0.,24.0,0.,24.0
1981-08-27 06:39:20.710 ,5,1,0.,24.0,0.,24.0,0.,24.0,0.,24.0
1981-08-27 06:39:44.710 ,5,0,0.,24.0,0.,24.0,0.,24.0,0.,24.0
1981-08-27 06:40:08.710 ,6,1,0.,24.0,0.,24.0,0.,24.0,0.,24.0
1981-08-27 06:40:32.710 ,6,0,0.,24.0,0.,24.0,0.,24.0,0.,24.0
1981-08-27 06:40:56.710 ,7,1,0.,24.0,0.,24.0,0.,24.0,0.,24.0
1981-08-27 06:41:20.710 ,7,0,0.,24.0,0.,24.0,0.,24.0,0.,24.0
1981-08-27 06:41:44.710 ,7,1,0.,24.0,0.,24.0,0.,24.0,0.,24.0
1981-08-27 06:42:08.710 ,7,0,0.,24.0,0.,24.0,0.,24.0,0.,24.0
1981-08-27 06:42:32.710 ,6,1,0.,24.0,0.,24.0,0.,24.0,0.,24.0
1981-08-27 06:42:56.710 ,6,0,0.,24.0,0.,24.0,0.,24.0,0.,24.0
1981-08-27 06:43:20.710 ,5,1,0.,24.0,0.,24.0,0.,24.0,0.,24.0
1981-08-27 06:43:44.710 ,5,0,0.,24.0,0.,24.0,0.,24.0,0.,24.0
1981-08-27 06:44:08.710 ,4,1,0.,24.0,0.,24.0,0.,24.0,0.,24.0
1981-08-27 06:44:32.710 ,4,0,0.,24.0,0.,24.0,0.,24.0,0.,24.0
1981-08-27 06:44:56.710 ,3,1,0.,24.0,0.,24.0,0.,24.0,0.,24.0
1981-08-27 06:45:20.710 ,3,0,0.,24.0,0.,24.0,0.,24.0,0.,24.0
1981-08-27 06:45:44.710 ,2,1,0.,24.0,0.,24.0,0.,24.0,0.,24.0
1981-08-27 06:46:08.710 ,2,0,0.,24.0,0.,24.0,0.,24.0,0.,24.0
1981-08-27 06:46:32.710 ,1,1,0.,24.0,0.,24.0,0.,24.0,0.,24.0
1981-08-27 06:46:56.710 ,1,0,0.,24.0,0.,24.0,0.,24.0,0.,24.0
1981-08-27 06:47:20.710 ,0,1,0.,24.0,0.,24.0,0.,24.0,0.,24.0
1981-08-27 06:47:44.710 ,0,0,0.,24.0,0.,24.0,0.,24.0,0.,24.0
1981-08-27 06:48:08.710 ,0,1,0.,24.0,0.,24.0,0.,24.0,0.,24.0
1981-08-27 06:48:32.710 ,0,0,0.,24.0,0.,24.0,0.,24.0,0.,24.0
1981-08-27 06:48:56.710 ,1,1,0.,24.0,0.,24.0,0.,24.0,0.,24.0
1981-08-27 06:49:20.710 ,1,0,0.,24.0,0.,24.0,0.,24.0,0.,24.0
1981-08-27 06:49:44.710 ,2,1,0.,24.0,0.,24.0,0.,24.0,0.,24.0
1981-08-27 06:50:08.710 ,2,0,0.,24.0,0.,24.0,0.,24.0,0.,24.0
1981-08-27 06:50:32.710 ,3,1,0.,24.0,0.,24.0,0.,24.0,0.,24.0
1981-08-27 06:50:56.710 ,3,0,0.,24.0,0.,24.0,0.,24.0,0.,24.0
1981-08-27 06:51:20.710 ,4,1,0.,24.0,0.,24.0,0.,24.0,0.,24.0
1981-08-27 06:51:44.710 ,4,0,0.,24.0,0.,24.0,0.,24.0,0.,24.0
1981-08-27 06:52:08.710 ,5,1,0.,24.0,0.,24.0,0.,24.0,0.,24.0
1981-08-27 06:52:32.710 ,5,0,0.,24.0,0.,24.0,0.,24.0,0.,24.0
1981-08-27 06:52:56.710 ,6,1,0.,24.0,0.,24.0,0.,24.0,0.,24.0
1981-08-27 06:53:20.710 ,6,0,0.,24.0,0.,24.0,0.,24.0,0.,24.0
1981-08-27 06:53:44.710 ,7,1,0.,24.0,0.,24.0,0.,24.0,0.,24.0
1981-08-27 06:54:08.710 ,7,0,0.,24.0,0.,24.0,0.,24.0,0.,24.0
1981-08-27 06:54:32.710 ,7,1,0.,24.0,0.,24.0,0.,24.0,0.,24.0
1981-08-27 06:54:56.710 ,7,0,0.,24.0,0.,24.0,0.,24.0,0.,24.0
1981-08-27 06:55:20.710 ,6,1,0.,24.0,0.,24.0,0.,24.0,0.,24.0
1981-08-27 06:55:44.710 ,6,0,0.,24.0,0.,24.0,0.,24.0,0.,24.0
1981-08-27 06:56:08.710 ,5,1,0.,24.0,0.,24.0,0.,24.0,0.,24.0
1981-08-27 06:56:32.710 ,0,0,0.,24.0,0.,24.0,0.,24.0,0.,24.0
1981-08-27 06:58:32.710 ,0,0,,0,,0,,0,,0
1981-08-27 06:58:56.710 ,0,0,0.,24.0,0.,24.0,0.,24.0,0.,24.0
1981-08-27 06:59:20.710 ,1,1,0.,24.0,0.,24.0,0.,24.0,0.,24.0
1981-08-27 06:59:44.710 ,1,0,0.,24.0,0.,24.0,0.,24.0,0.,24.0
1981-08-27 07:00:08.710 ,0,1,0.,24.0,0.,24.0,0.,24.0,0.,24.0
1981-08-27 07:00:32.710 ,0,0,0.,24.0,0.,24.0,0.,24.0,0.,24.0
1981-08-27 07:00:56.710 ,0,1,0.,24.0,0.,24.0,0.,24.0,0.,24.0
1981-08-27 07:01:20.710 ,0,0,0.,24.0,0.,24.0,0.,24.0,0.,24.0
1981-08-27 07:01:44.710 ,1,1,0.,24.0,0.,24.0,0.,24.0,0.,24.0
1981-08-27 07:02:08.710 ,1,0,0.,24.0,0.,24.0,0.,24.0,0.,24.0
1981-08-27 07:02:32.710 ,2,1,0.,24.0,0.,24.0,0.,24.0,0.,24.0
1981-08-27 07:02:56.710 ,2,0,0.,24.0,0.,24.0,0.,24.0,0.,24.0
1981-08-27 07:03:20.710 ,3,1,0.,24.0,0.,24.0,0.,24.0,0.,24.0
1981-08-27 07:03:44.710 ,3,0,0.,24.0,0.,24.0,0.,24.0,0.,24.0
1981-08-27 07:04:08.710 ,4,1,0.,24.0,0.,24.0,0.,24.0,0.,24.0
1981-08-27 07:04:32.710 ,4,0,0.,24.0,0.,24.0,0.,24.0,0.,24.0
1981-08-27 07:04:56.710 ,5,1,0.,24.0,0.,24.0,0.,24.0,0.,24.0
1981-08-27 07:05:20.710 ,5,0,0.,24.0,0.,24.0,0.,24.0,0.,24.0
1981-08-27 07:05:44.710 ,6,1,0.,24.0,0.,24.0,0.,24.0,0.,24.0
1981-08-27 07:06:08.710 ,6,0,0.,24.0,0.,24.0,0.,24.0,0.,24.0
1981-08-27 07:06:32.710 ,7,1,0.,24.0,0.,24.0,0.,24.0,0.,24.0
1981-08-27 07:06:56.710 ,7,0,0.,24.0,0.,24.0,0.,24.0,0.,24.0
1981-08-27 07:07:20.710 ,7,1,0.,24.0,0.,24.0,0.,24.0,0.,24.0
1981-08-27 07:07:44.710 ,7,0,0.,24.0,0.,24.0,0.,24.0,0.,24.0
1981-08-27 07:08:08.710 ,6,1,0.,24.0,0.,24.0,0.,24.0,0.,24.0
1981-08-27 07:08:32.710 ,6,0,0.,24.0,0.,24.0,0.,24.0,0.,24.0
1981-08-27 07:08:56.710 ,5,1,0.,24.0,0.,24.0,0.,24.0,0.,24.0
1981-08-27 07:09:20.710 ,5,0,0.,24.0,0.,24.0,0.,24.0,0.,24.0
1981-08-27 07:09:44.710 ,4,1,0.,24.0,0.,24.0,0.,24.0,0.,24.0
1981-08-27 07:10:08.710 ,4,0,0.,24.0,0.,24.0,0.,24.0,0.,24.0
1981-08-27 07:10:32.710 ,3,1,0.,24.0,0.,24.0,0.,24.0,0.,24.0
1981-08-27 07:10:56.710 ,3,0,0.,24.0,0.,24.0,0.,24.0,0.,24.0
1981-08-27 07:11:20.710 ,2,1,0.,24.0,0.,24.0,0.,24.0,0.,24.0
1981-08-27 07:11:44.710 ,2,0,0.,24.0,0.,24.0,0.,24.0,0.,24.0
1981-08-27 07:12:08.710 ,1,1,0.,24.0,0.,24.0,0.,24.0,0.,24.0
1981-08-27 07:12:32.710 ,1,0,0.,24.0,0.,24.0,0.,24.0,0.,24.0
1981-08-27 07:12:56.710 ,0,1,0.,24.0,0.,24.0,0.,24.0,0.,24.0
1981-08-27 07:13:20.710 ,0,0,0.,24.0,0.,24.0,0.,24.0,0.,24.0
1981-08-27 07:17:02.110 ,0,0,0.,24.0,0.,24.0,0.,24.0,0.,24.0
1981-08-27 07:17:20.710 ,0,0,0.,24.0,0.,24.0,0.,24.0,0.,24.0
1981-08-27 07:17:44.710 ,5,1,0.,24.0,0.,24.0,0.,24.0,0.,24.0
1981-08-27 07:18:08.710 ,5,0,0.,24.0,0.,24.0,0.,24.0,0.,24.0
1981-08-27 07:18:32.710 ,6,1,0.,24.0,0.,24.0,0.,24.0,0.,24.0
1981-08-27 07:18:56.710 ,6,0,0.,24.0,0.,24.0,0.,24.0,0.,24.0
1981-08-27 07:19:20.710 ,7,1,0.,24.0,0.,24.0,0.,24.0,0.,24.0
1981-08-27 07:19:44.710 ,7,0,0.,24.0,0.,24.0,0.,24.0,0.,24.0
1981-08-27 07:20:08.710 ,7,1,0.,24.0,0.,24.0,0.,24.0,0.,24.0
1981-08-27 07:20:32.710 ,7,0,0.,24.0,0.,24.0,0.,24.0,0.,24.0
1981-08-27 07:20:56.710 ,6,1,0.,24.0,0.,24.0,0.,24.0,0.,24.0
1981-08-27 07:21:20.710 ,6,0,0.,24.0,0.,24.0,0.,24.0,0.,24.0
1981-08-27 07:21:44.710 ,5,1,0.,24.0,0.,24.0,0.,24.0,0.,24.0
1981-08-27 07:22:08.710 ,5,0,0.,24.0,0.,24.0,0.,24.0,0.,24.0
1981-08-27 07:22:32.710 ,4,1,0.,24.0,0.,24.0,0.,24.0,0.,24.0
1981-08-27 07:22:56.710 ,4,0,0.,24.0,0.,24.0,0.,24.0,0.,24.0
1981-08-27 07:23:20.710 ,3,1,0.,24.0,0.,24.0,0.,24.0,0.,24.0
1981-08-27 07:23:44.710 ,3,0,0.,24.0,0.,24.0,0.,24.0,0.,24.0
1981-08-27 07:24:08.710 ,2,1,0.,24.0,0.,24.0,0.,24.0,0.,24.0
1981-08-27 07:24:32.710 ,2,0,0.,24.0,0.,24.0,0.,24.0,0.,24.0
1981-08-27 07:24:56.710 ,1,1,0.,24.0,0.,24.0,0.,24.0,0.,24.0
1981-08-27 07:25:20.710 ,1,0,0.,24.0,0.,24.0,0.,24.0,0.,24.0
1981-08-27 07:25:44.710 ,0,1,0.,24.0,0.,24.0,0.,24.0,0.,24.0
1981-08-27 07:26:08.710 ,0,0,0.,24.0,0.,24.0,0.,24.0,0.,24.0
1981-08-27 07:26:32.710 ,0,1,0.,24.0,0.,24.0,0.,24.0,0.,24.0
1981-08-27 07:26:56.710 ,0,0,0.,24.0,0.,24.0,0.,24.0,0.,24.0
1981-08-27 07:27:20.710 ,1,1,0.,24.0,0.,24.0,0.,24.0,0.,24.0
1981-08-27 07:27:44.710 ,1,0,0.,24.0,0.,24.0,0.,24.0,0.,24.0
1981-08-27 07:28:08.710 ,2,1,0.,24.0,0.,24.0,0.,24.0,0.,24.0
1981-08-27 07:28:32.710 ,2,0,0.,24.0,0.,24.0,0.,24.0,0.,24.0
1981-08-27 07:28:56.710 ,3,1,0.,24.0,0.,24.0,0.,24.0,0.,24.0
1981-08-27 07:29:20.710 ,3,0,0.,24.0,0.,24.0,0.,24.0,0.,24.0
1981-08-27 07:29:44.710 ,4,1,0.,24.0,0.,24.0,0.,24.0,0.,24.0
1981-08-27 07:30:08.710 ,4,0,0.,24.0,0.,24.0,0.,24.0,0.,24.0
1981-08-27 07:30:32.710 ,5,1,0.,24.0,0.,24.0,0.,24.0,0.,24.0
1981-08-27 07:30:56.710 ,5,0,0.,24.0,0.,24.0,0.,24.0,0.,24.0
1981-08-27 07:31:20.710 ,6,1,0.,24.0,0.,24.0,0.,24.0,0.,24.0
1981-08-27 07:31:44.710 ,6,0,0.,24.0,0.,24.0,0.,24.0,0.,24.0
1981-08-27 07:32:08.710 ,7,1,0.,24.0,0.,24.0,0.,24.0,0.,24.0
1981-08-27 07:32:32.710 ,7,0,0.,24.0,0.,24.0,0.,24.0,0.,24.0
1981-08-27 07:32:56.710 ,7,1,0.,24.0,0.,24.0,0.,24.0,0.,24.0
1981-08-27 07:33:20.710 ,7,0,0.,24.0,0.,24.0,0.,24.0,0.,24.0
1981-08-27 07:33:44.710 ,6,1,0.,24.0,0.,24.0,0.,24.0,0.,24.0
1981-08-27 07:34:08.710 ,6,0,0.,24.0,0.,24.0,0.,24.0,0.,24.0
1981-08-27 07:34:32.710 ,5,1,0.,24.0,0.,24.0,0.,24.0,0.,24.0
1981-08-27 07:34:56.710 ,5,0,0.,24.0,0.,24.0,0.,24.0,0.,24.0
1981-08-27 07:35:20.710 ,4,1,0.,24.0,0.,24.0,0.,24.0,0.,24.0
1981-08-27 07:35:44.710 ,4,0,0.,24.0,0.,24.0,0.,24.0,0.,24.0
1981-08-27 07:36:08.710 ,3,1,0.,24.0,0.,24.0,0.,24.0,0.,24.0
1981-08-27 07:36:32.710 ,3,0,0.,24.0,0.,24.0,0.,24.0,0.,24.0
1981-08-27 07:36:56.710 ,2,1,0.,24.0,0.,24.0,0.,24.0,0.,24.0
1981-08-27 07:37:20.710 ,2,0,0.,24.0,0.,24.0,0.,24.0,0.,24.0
1981-08-27 07:37:44.710 ,0,0,0.,24.0,0.,24.0,0.,24.0,0.,24.0
1981-08-27 07:38:08.710 ,3,0,0.,24.0,0.,24.0,0.,24.0,0.,24.0
1981-08-27 07:38:32.710 ,3,0,0.,24.0,0.,24.0,0.,24.0,0.,24.0
1981-08-27 07:38:56.710 ,3,0,0.,24.0,0.,24.0,0.,24.0,0.,24.0
1981-08-27 07:39:20.710 ,0,0,0.,24.0,0.,24.0,0.,24.0,0.,24.0
1981-08-27 07:39:44.710 ,0,0,0.,24.0,0.,24.0,0.,24.0,0.,24.0
1981-08-27 07:40:08.710 ,6,0,0.,24.0,0.,24.0,0.,24.0,0.,24.0
1981-08-27 07:40:32.710 ,6,0,0.,24.0,0.,24.0,0.,24.0,0.,24.0
1981-08-27 07:40:56.710 ,6,0,0.,24.0,0.,24.0,0.,24.0,0.,24.0
1981-08-27 07:41:20.710 ,6,0,0.,24.0,0.,24.0,0.,24.0,0.,24.0
1981-08-27 07:41:44.710 ,6,0,0.,24.0,0.,24.0,0.,24.0,0.,24.0
1981-08-27 07:42:08.710 ,6,0,0.,24.0,0.,24.0,0.,24.0,0.,24.0
1981-08-27 07:42:32.710 ,7,1,0.,24.0,0.,24.0,0.,24.0,0.,24.0
1981-08-27 07:42:56.710 ,6,1,0.,24.0,0.,24.0,0.,24.0,0.,24.0
1981-08-27 07:43:20.710 ,5,1,0.,24.0,0.,24.0,0.,24.0,0.,24.0
1981-08-27 07:43:44.710 ,4,1,0.,24.0,0.,24.0,0.,24.0,0.,24.0
1981-08-27 07:44:08.710 ,3,1,0.,24.0,0.,24.0,0.,24.0,0.,24.0
1981-08-27 07:44:32.710 ,2,1,0.,24.0,0.,24.0,0.,24.0,0.,24.0
1981-08-27 07:44:56.710 ,1,1,0.,24.0,0.,24.0,0.,24.0,0.,24.0
1981-08-27 07:45:20.710 ,0,1,0.,24.0,0.,24.0,0.,24.0,0.,24.0
1981-08-27 07:45:44.710 ,0,1,0.,24.0,0.,24.0,0.,24.0,0.,24.0
1981-08-27 07:46:08.710 ,1,1,0.,24.0,0.,24.0,0.,24.0,0.,24.0
1981-08-27 07:46:32.710 ,2,1,0.,24.0,0.,24.0,0.,24.0,0.,24.0
1981-08-27 07:46:56.710 ,3,1,0.,24.0,0.,24.0,0.,24.0,0.,24.0
1981-08-27 07:47:20.710 ,4,1,0.,24.0,0.,24.0,0.,24.0,0.,24.0
1981-08-27 07:47:44.710 ,5,1,0.,24.0,0.,24.0,0.,24.0,0.,24.0
1981-08-27 07:48:08.710 ,6,1,0.,24.0,0.,24.0,0.,24.0,0.,24.0
1981-08-27 07:48:32.710 ,7,1,0.,24.0,0.,24.0,0.,24.0,0.,24.0
1981-08-27 07:48:56.710 ,7,1,0.,24.0,0.,24.0,0.,24.0,0.,24.0
1981-08-27 07:49:20.710 ,7,0,0.,24.0,0.,24.0,0.,24.0,0.,24.0
1981-08-27 07:49:44.710 ,6,1,0.,24.0,0.,24.0,0.,24.0,0.,24.0
1981-08-27 07:50:08.710 ,6,0,0.,24.0,0.,24.0,0.,24.0,0.,24.0
1981-08-27 07:50:32.710 ,5,1,0.,24.0,0.,24.0,0.,24.0,0.,24.0
1981-08-27 07:50:56.710 ,5,0,0.,24.0,0.,24.0,0.,24.0,0.,24.0
1981-08-27 07:51:20.710 ,4,1,0.,24.0,0.,24.0,0.,24.0,0.,24.0
1981-08-27 07:51:44.710 ,4,0,0.,24.0,0.,24.0,0.,24.0,0.,24.0
1981-08-27 07:52:08.710 ,3,1,0.,24.0,0.,24.0,0.,24.0,0.,24.0
1981-08-27 07:52:32.710 ,3,0,0.,24.0,0.,24.0,0.,24.0,0.,24.0
1981-08-27 07:52:56.710 ,2,1,0.,24.0,0.,24.0,0.,24.0,0.,24.0
1981-08-27 07:53:20.710 ,2,0,0.,24.0,0.,24.0,0.,24.0,0.,24.0
1981-08-27 07:53:44.710 ,1,1,0.,24.0,0.,24.0,0.,24.0,0.,24.0
1981-08-27 07:54:08.710 ,1,0,0.,24.0,0.,24.0,0.,24.0,0.,24.0
1981-08-27 07:54:32.710 ,0,1,0.,24.0,0.,24.0,0.,24.0,0.,24.0
1981-08-27 07:54:56.710 ,0,0,0.,24.0,0.,24.0,0.,24.0,0.,24.0
1981-08-27 07:55:20.710 ,0,1,0.,24.0,0.,24.0,0.,24.0,0.,24.0
1981-08-27 07:55:44.710 ,0,0,0.,24.0,0.,24.0,0.,24.0,0.,24.0
1981-08-27 07:56:08.710 ,1,1,0.,24.0,0.,24.0,0.,24.0,0.,24.0
1981-08-27 07:56:32.710 ,1,0,0.,24.0,0.,24.0,0.,24.0,0.,24.0
1981-08-27 07:56:56.710 ,2,1,0.,24.0,0.,24.0,0.,24.0,0.,24.0
1981-08-27 07:57:20.710 ,2,0,0.,24.0,0.,24.0,0.,24.0,0.,24.0
1981-08-27 07:57:44.710 ,3,1,0.,24.0,0.,24.0,0.,24.0,0.,24.0
1981-08-27 07:58:08.710 ,3,0,0.,24.0,0.,24.0,0.,24.0,0.,24.0
1981-08-27 07:58:32.710 ,4,1,0.,24.0,0.,24.0,0.,24.0,0.,24.0
1981-08-27 07:58:56.710 ,4,0,0.,24.0,0.,24.0,0.,24.0,0.,24.0
1981-08-27 07:59:20.710 ,5,1,0.,24.0,0.,24.0,0.,24.0,0.,24.0
1981-08-27 07:59:44.710 ,5,0,0.,24.0,0.,24.0,0.,24.0,0.,24.0
1981-08-27 08:00:08.710 ,6,1,0.,24.0,0.,24.0,0.,24.0,0.,24.0
1981-08-27 08:00:32.710 ,6,0,0.,24.0,0.,24.0,0.,24.0,0.,24.0
1981-08-27 08:00:56.710 ,7,1,0.,24.0,0.,24.0,0.,24.0,0.,24.0
1981-08-27 08:01:20.710 ,7,0,0.,24.0,0.,24.0,0.,24.0,0.,24.0
1981-08-27 08:01:44.710 ,7,1,0.,24.0,0.,24.0,0.,24.0,0.,24.0
1981-08-27 08:02:08.710 ,6,1,0.,24.0,0.,24.0,0.,24.0,0.,24.0
1981-08-27 08:02:32.710 ,5,1,0.,24.0,0.,24.0,0.,24.0,0.,24.0
1981-08-27 08:02:56.710 ,4,1,0.,24.0,0.,24.0,0.,24.0,0.,24.0
1981-08-27 08:03:20.710 ,3,1,0.,24.0,0.,24.0,0.,24.0,0.,24.0
1981-08-27 08:03:44.710 ,2,1,0.,24.0,0.,24.0,0.,24.0,0.,24.0
1981-08-27 08:04:08.710 ,1,1,0.,24.0,0.,24.0,0.,24.0,0.,24.0
1981-08-27 08:04:32.710 ,0,1,0.,24.0,0.,24.0,0.,24.0,0.,24.0
1981-08-27 08:04:56.710 ,0,1,0.,24.0,0.,24.0,0.,24.0,0.,24.0
1981-08-27 08:05:20.710 ,1,1,0.,24.0,0.,24.0,0.,24.0,0.,24.0
1981-08-27 08:05:44.710 ,2,1,0.,24.0,0.,24.0,0.,24.0,0.,24.0
1981-08-27 08:06:08.710 ,3,1,0.,24.0,0.,24.0,0.,24.0,0.,24.0
1981-08-27 08:06:32.710 ,4,1,0.,24.0,0.,24.0,0.,24.0,0.,24.0
1981-08-27 08:06:56.710 ,5,1,0.,24.0,0.,24.0,0.,24.0,0.,24.0
1981-08-27 08:07:20.710 ,6,1,0.,24.0,0.,24.0,0.,24.0,0.,24.0
1981-08-27 08:07:44.710 ,7,1,0.,24.0,0.,24.0,0.,24.0,0.,24.0
1981-08-27 08:08:08.710 ,7,1,0.,24.0,0.,24.0,0.,24.0,0.,24.0
1981-08-27 08:08:32.710 ,7,0,0.,24.0,0.,24.0,0.,24.0,0.,24.0
1981-08-27 08:08:56.710 ,6,1,0.,24.0,0.,24.0,0.,24.0,0.,24.0
1981-08-27 08:09:20.710 ,6,0,0.,24.0,0.,24.0,0.,24.0,0.,24.0
1981-08-27 08:09:44.710 ,5,1,0.,24.0,0.,24.0,0.,24.0,0.,24.0
1981-08-27 08:10:08.710 ,5,0,0.,24.0,0.,24.0,0.,24.0,0.,24.0
1981-08-27 08:10:32.710 ,0,0,0.,24.0,0.,24.0,0.,24.0,0.,24.0
1981-08-27 08:10:56.710 ,0,0,,0,,0,,0,,0
1981-08-27 08:10:56.710 ,4,0,0.,24.0,0.,24.0,0.,24.0,0.,24.0
1981-08-27 08:11:20.710 ,3,1,0.,24.0,0.,24.0,0.,24.0,0.,24.0
1981-08-27 08:11:44.710 ,3,0,0.,24.0,0.,24.0,0.,24.0,0.,24.0
1981-08-27 08:12:08.710 ,2,1,0.,24.0,0.,24.0,0.,24.0,0.,24.0
1981-08-27 08:12:32.710 ,0,0,0.,24.0,0.,24.0,0.,24.0,0.,24.0
1981-08-27 08:13:44.710 ,0,0,0.,24.0,0.,24.0,0.,24.0,0.,24.0
1981-08-27 08:14:08.710 ,0,0,0.,24.0,0.,24.0,0.,24.0,0.,24.0
1981-08-27 08:14:32.710 ,0,1,0.,24.0,0.,24.0,0.,24.0,0.,24.0
1981-08-27 08:14:56.710 ,0,0,0.,24.0,0.,24.0,0.,24.0,0.,24.0
1981-08-27 08:15:20.710 ,1,1,0.,24.0,0.,24.0,0.,24.0,0.,24.0
1981-08-27 08:15:44.710 ,1,0,0.,24.0,0.,24.0,0.,24.0,0.,24.0
1981-08-27 08:16:08.710 ,2,1,0.,24.0,0.,24.0,0.,24.0,0.,24.0
1981-08-27 08:16:32.710 ,2,0,0.,24.0,0.,24.0,0.,24.0,0.,24.0
1981-08-27 08:16:56.710 ,3,1,0.,24.0,0.,24.0,0.,24.0,0.,24.0
1981-08-27 08:17:20.710 ,3,0,1.,24.0,0.,24.0,0.,24.0,0.,24.0
1981-08-27 08:17:44.710 ,4,1,0.,24.0,0.,24.0,0.,24.0,0.,24.0
1981-08-27 08:18:08.710 ,4,0,0.,24.0,0.,24.0,0.,24.0,0.,24.0
1981-08-27 08:18:32.710 ,5,1,0.,24.0,0.,24.0,0.,24.0,0.,24.0
1981-08-27 08:18:56.710 ,5,0,0.,24.0,0.,24.0,0.,24.0,0.,24.0
1981-08-27 08:19:20.710 ,6,1,0.,24.0,0.,24.0,0.,24.0,0.,24.0
1981-08-27 08:19:44.710 ,6,0,0.,24.0,0.,24.0,0.,24.0,0.,24.0
1981-08-27 08:20:08.710 ,7,1,0.,24.0,0.,24.0,0.,24.0,0.,24.0
1981-08-27 08:20:32.710 ,7,0,0.,24.0,0.,24.0,0.,24.0,0.,24.0
1981-08-27 08:20:56.710 ,7,1,0.,24.0,0.,24.0,0.,24.0,0.,24.0
1981-08-27 08:21:20.710 ,6,1,0.,24.0,0.,24.0,0.,24.0,0.,24.0
1981-08-27 08:21:44.710 ,5,1,0.,24.0,0.,24.0,0.,24.0,0.,24.0
1981-08-27 08:22:08.710 ,4,1,0.,24.0,0.,24.0,0.,24.0,0.,24.0
1981-08-27 08:22:32.710 ,3,1,0.,24.0,0.,24.0,0.,24.0,0.,24.0
1981-08-27 08:22:56.710 ,2,1,0.,24.0,0.,24.0,0.,24.0,0.,24.0
1981-08-27 08:23:20.710 ,1,1,0.,24.0,0.,24.0,0.,24.0,0.,24.0
1981-08-27 08:23:44.710 ,0,1,0.,24.0,0.,24.0,0.,24.0,0.,24.0
1981-08-27 08:24:08.710 ,0,1,0.,24.0,0.,24.0,0.,24.0,0.,24.0
1981-08-27 08:24:32.710 ,1,1,0.,24.0,0.,24.0,0.,24.0,0.,24.0
1981-08-27 08:24:56.710 ,2,1,0.,24.0,0.,24.0,0.,24.0,0.,24.0
1981-08-27 08:25:20.710 ,3,1,0.,24.0,0.,24.0,0.,24.0,0.,24.0
1981-08-27 08:25:44.710 ,4,1,0.,24.0,0.,24.0,0.,24.0,0.,24.0
1981-08-27 08:26:08.710 ,5,1,0.,24.0,0.,24.0,0.,24.0,0.,24.0
1981-08-27 08:26:32.710 ,6,1,0.,24.0,0.,24.0,0.,24.0,0.,24.0
1981-08-27 08:26:56.710 ,7,1,0.,24.0,0.,24.0,0.,24.0,0.,24.0
1981-08-27 08:27:20.710 ,7,1,0.,24.0,0.,24.0,0.,24.0,0.,24.0
1981-08-27 08:27:44.710 ,7,0,0.,24.0,0.,24.0,0.,24.0,0.,24.0
1981-08-27 08:28:08.710 ,6,1,0.,24.0,0.,24.0,0.,24.0,0.,24.0
1981-08-27 08:28:32.710 ,6,0,0.,24.0,0.,24.0,0.,24.0,0.,24.0
1981-08-27 08:28:56.710 ,5,1,0.,24.0,0.,24.0,0.,24.0,0.,24.0
1981-08-27 08:29:20.710 ,5,0,0.,24.0,0.,24.0,0.,24.0,0.,24.0
1981-08-27 08:29:44.710 ,4,1,0.,24.0,0.,24.0,0.,24.0,0.,24.0
1981-08-27 08:30:08.710 ,4,0,0.,24.0,0.,24.0,0.,24.0,0.,24.0
1981-08-27 08:30:32.710 ,3,1,0.,24.0,0.,24.0,0.,24.0,0.,24.0
1981-08-27 08:30:56.710 ,3,0,0.,24.0,0.,24.0,0.,24.0,0.,24.0
1981-08-27 08:31:20.710 ,2,1,0.,24.0,0.,24.0,0.,24.0,0.,24.0
1981-08-27 08:31:44.710 ,2,0,0.,24.0,0.,24.0,0.,24.0,0.,24.0
1981-08-27 08:32:08.710 ,1,1,0.,24.0,0.,24.0,0.,24.0,0.,24.0
1981-08-27 08:32:32.710 ,1,0,0.,24.0,0.,24.0,0.,24.0,0.,24.0
1981-08-27 08:32:56.710 ,0,1,0.,24.0,0.,24.0,0.,24.0,0.,24.0
1981-08-27 08:33:20.710 ,0,0,0.,24.0,0.,24.0,0.,24.0,0.,24.0
1981-08-27 08:33:44.710 ,0,1,0.,24.0,0.,24.0,0.,24.0,0.,24.0
1981-08-27 08:34:08.710 ,0,0,0.,24.0,0.,24.0,0.,24.0,0.,24.0
1981-08-27 08:34:32.710 ,1,1,0.,24.0,0.,24.0,0.,24.0,0.,24.0
1981-08-27 08:34:56.710 ,1,0,0.,24.0,0.,24.0,0.,24.0,0.,24.0
1981-08-27 08:35:20.710 ,2,1,0.,24.0,0.,24.0,0.,24.0,0.,24.0
1981-08-27 08:35:44.710 ,2,0,0.,24.0,0.,24.0,0.,24.0,0.,24.0
1981-08-27 08:36:08.710 ,3,1,0.,24.0,0.,24.0,0.,24.0,0.,24.0
1981-08-27 08:36:32.710 ,3,0,0.,24.0,0.,24.0,0.,24.0,0.,24.0
1981-08-27 08:36:56.710 ,4,1,0.,24.0,0.,24.0,0.,24.0,0.,24.0
1981-08-27 08:37:20.710 ,4,0,0.,24.0,0.,24.0,0.,24.0,0.,24.0
1981-08-27 08:37:44.710 ,5,1,0.,24.0,0.,24.0,0.,24.0,0.,24.0
1981-08-27 08:38:08.710 ,5,0,0.,24.0,0.,24.0,0.,24.0,0.,24.0
1981-08-27 08:38:32.710 ,6,1,0.,24.0,0.,24.0,0.,24.0,0.,24.0
1981-08-27 08:38:56.710 ,6,0,0.,24.0,0.,24.0,0.,24.0,0.,24.0
1981-08-27 08:39:20.710 ,7,1,0.,24.0,0.,24.0,0.,24.0,0.,24.0